Location: Gold Fund Mine
(38.3819°N, 119.0996°W)
Time: 22:53:02
(UTC+00:00)

ERS-2 - Pass Details

Date: 18 September 2020
Orbit: 492 x 499 km, 98.6° (Epoch: 20 October)

Event Time Altitude Azimuth Distance (km) Brightness Sun altitude
Rises 12:19:53 0° 174° (S) 2,574 5.7 -16.5°
Reaches altitude 10° 12:21:58 10° 178° (S) 1,696 4.7 -16.1°
Maximum altitude 12:25:35 59° 258° (WSW) 579 2.1 -15.4°
Drops below altitude 10° 12:29:12 10° 339° (NNW) 1,709 4.8 -14.8°
Sets 12:31:19 0° 343° (NNW) 2,597 5.7 -14.4°
